Total_Precipitation_Accumulation
0.28 0.35 0.33 0.24 0.17 0.15 0.21 0.26 0.29 0.23 0.19 0.26 0.40 0.46 0.38 0.38 0.41 0.41 0.50 0.50 0.44 0.38 0.32 0.31 0.32 0.32 0.35 0.41 0.46 0.47 0.48 0.52 0.61 0.72 0.85 0.99 1.11 1.20
0.33 0.35 0.37 0.35 0.32 0.24 0.23 0.26 0.30 0.30 0.27 0.25 0.39 0.47 0.50 0.41 0.44 0.48 0.49 0.47 0.41 0.37 0.31 0.27 0.28 0.29 0.29 0.28 0.32 0.37 0.38 0.36 0.39 0.45 0.51 0.59 0.65 0.75
0.57 0.50 0.44 0.44 0.43 0.37 0.33 0.30 0.30 0.33 0.37 0.39 0.48 0.60 0.63 0.55 0.55 0.52 0.49 0.49 0.40 0.37 0.34 0.31 0.27 0.26 0.28 0.27 0.26 0.25 0.28 0.29 0.28 0.28 0.32 0.36 0.38 0.41
0.69 0.72 0.63 0.56 0.51 0.43 0.39 0.36 0.35 0.38 0.44 0.53 0.60 0.67 0.69 0.67 0.63 0.50 0.41 0.39 0.43 0.41 0.36 0.34 0.33 0.29 0.27 0.25 0.24 0.21 0.21 0.21 0.22 0.21 0.21 0.24 0.28 0.31
0.44 0.65 0.74 0.72 0.59 0.51 0.45 0.40 0.39 0.40 0.42 0.47 0.58 0.74 0.85 0.83 0.62 0.40 0.34 0.37 0.38 0.47 0.44 0.35 0.32 0.31 0.28 0.24 0.21 0.19 0.18 0.18 0.19 0.19 0.18 0.16 0.18 0.20
0.21 0.34 0.52 0.69 0.68 0.60 0.52 0.45 0.45 0.47 0.48 0.49 0.58 0.76 0.93 0.98 0.75 0.47 0.37 0.35 0.35 0.33 0.34 0.31 0.30 0.29 0.27 0.24 0.21 0.19 0.18 0.18 0.20 0.19 0.18 0.17 0.15 0.13
0.15 0.17 0.23 0.38 0.53 0.60 0.54 0.50 0.49 0.50 0.52 0.52 0.59 0.76 0.91 0.99 0.77 0.56 0.43 0.39 0.37 0.35 0.29 0.25 0.23 0.21 0.22 0.23 0.24 0.21 0.18 0.18 0.20 0.22 0.21 0.19 0.17 0.15
0.25 0.23 0.19 0.18 0.26 0.38 0.46 0.49 0.49 0.47 0.51 0.53 0.58 0.73 0.86 0.90 0.95 0.78 0.58 0.42 0.34 0.34 0.33 0.31 0.29 0.27 0.23 0.20 0.22 0.23 0.22 0.20 0.19 0.20 0.21 0.23 0.21 0.18
0.37 0.37 0.23 0.13 0.18 0.25 0.32 0.38 0.40 0.38 0.39 0.46 0.54 0.67 0.94 1.10 1.19 0.94 0.74 0.62 0.49 0.43 0.38 0.35 0.36 0.33 0.28 0.26 0.30 0.27 0.25 0.24 0.21 0.19 0.19 0.20 0.22 0.22
0.33 0.41 0.35 0.29 0.28 0.32 0.32 0.31 0.31 0.30 0.28 0.30 0.39 0.58 0.84 1.19 1.35 1.33 1.21 1.00 0.86 0.68 0.50 0.39 0.36 0.32 0.32 0.28 0.33 0.31 0.28 0.27 0.26 0.25 0.21 0.19 0.21 0.23
0.30 0.35 0.40 0.39 0.31 0.25 0.30 0.27 0.25 0.26 0.23 0.24 0.31 0.50 0.69 0.94 1.27 1.42 1.36 1.14 0.93 0.71 0.51 0.38 0.33 0.30 0.28 0.26 0.28 0.32 0.30 0.28 0.27 0.28 0.28 0.25 0.23 0.25
0.37 0.43 0.46 0.42 0.32 0.21 0.27 0.31 0.25 0.23 0.23 0.23 0.26 0.34 0.49 0.66 0.95 1.10 1.06 0.98 0.83 0.66 0.45 0.36 0.31 0.34 0.30 0.25 0.21 0.22 0.23 0.27 0.28 0.28 0.29 0.29 0.28 0.21
0.34 0.37 0.48 0.42 0.33 0.22 0.25 0.29 0.24 0.25 0.30 0.29 0.29 0.34 0.46 0.60 0.74 0.94 0.98 0.86 0.74 0.58 0.42 0.38 0.32 0.30 0.28 0.23 0.22 0.20 0.18 0.17 0.19 0.23 0.28 0.30 0.30 0.26
0.44 0.47 0.54 0.51 0.40 0.32 0.28 0.27 0.21 0.19 0.27 0.32 0.31 0.32 0.38 0.47 0.64 0.83 0.97 0.94 0.81 0.71 0.60 0.51 0.42 0.35 0.27 0.22 0.19 0.18 0.18 0.17 0.16 0.17 0.19 0.27 0.28 0.30
0.51 0.65 0.69 0.65 0.55 0.46 0.39 0.36 0.27 0.22 0.25 0.27 0.28 0.27 0.30 0.41 0.63 0.84 0.99 1.06 0.99 0.86 0.78 0.64 0.52 0.45 0.39 0.25 0.18 0.16 0.17 0.18 0.18 0.17 0.17 0.17 0.18 0.21
0.42 0.62 0.75 0.81 0.77 0.66 0.57 0.51 0.37 0.30 0.30 0.29 0.30 0.34 0.40 0.51 0.65 0.73 0.83 0.93 0.95 0.89 0.78 0.69 0.58 0.51 0.45 0.35 0.22 0.16 0.13 0.13 0.15 0.16 0.17 0.17 0.17 0.18
0.34 0.62 0.83 0.98 1.01 0.99 0.86 0.76 0.63 0.50 0.41 0.41 0.43 0.43 0.45 0.51 0.59 0.69 0.78 0.80 0.75 0.67 0.64 0.65 0.62 0.57 0.54 0.47 0.31 0.20 0.15 0.11 0.09 0.12 0.15 0.18 0.18 0.17
0.31 0.59 0.82 0.99 1.05 1.15 1.14 1.05 0.87 0.70 0.59 0.55 0.51 0.50 0.49 0.47 0.51 0.64 0.75 0.79 0.72 0.63 0.56 0.52 0.53 0.53 0.52 0.49 0.41 0.26 0.17 0.14 0.11 0.10 0.11 0.14 0.16 0.16
0.34 0.51 0.61 0.75 0.91 1.08 1.15 1.12 0.96 0.81 0.78 0.73 0.63 0.57 0.56 0.52 0.49 0.57 0.69 0.77 0.78 0.70 0.64 0.53 0.45 0.40 0.38 0.35 0.31 0.25 0.20 0.15 0.14 0.12 0.11 0.11 0.11 0.12
0.29 0.36 0.42 0.53 0.70 0.94 1.08 1.12 1.04 0.91 0.86 0.86 0.80 0.70 0.64 0.58 0.50 0.48 0.59 0.66 0.71 0.72 0.70 0.61 0.43 0.33 0.27 0.25 0.24 0.22 0.19 0.22 0.18 0.15 0.13 0.12 0.13 0.17
0.27 0.30 0.33 0.42 0.56 0.75 0.94 1.06 1.07 0.98 0.89 0.89 0.86 0.76 0.71 0.64 0.54 0.48 0.52 0.62 0.69 0.68 0.61 0.54 0.43 0.42 0.48 0.44 0.37 0.33 0.26 0.24 0.29 0.23 0.17 0.16 0.14 0.14
0.32 0.32 0.34 0.42 0.53 0.71 0.87 0.96 1.01 0.98 0.92 0.89 0.86 0.77 0.72 0.68 0.58 0.53 0.51 0.54 0.57 0.61 0.62 0.63 0.66 0.60 0.56 0.48 0.37 0.33 0.33 0.30 0.31 0.39 0.33 0.22 0.13 0.09
0.37 0.34 0.34 0.38 0.49 0.66 0.78 0.88 0.91 0.91 0.89 0.85 0.83 0.76 0.71 0.69 0.66 0.61 0.54 0.52 0.55 0.61 0.74 0.78 0.75 0.67 0.55 0.50 0.45 0.41 0.38 0.36 0.33 0.30 0.27 0.23 0.18 0.14